RH
27 26 19 22 24 17 9 8 7 7 7 7 8 8 8 8 7 7 7 7 8 8 8 7 7 8 8 9 12 13 14 19 25 28 21 19 19 20 20 16 14 14 14
31 29 21 23 29 23 9 6 6 7 8 8 8 8 8 7 7 6 6 6 6 7 7 7 7 6 7 7 7 7 8 9 10 11 17 31 25 19 19 20 21 18 15
32 30 24 14 22 27 11 6 7 8 8 8 8 8 8 7 7 7 7 7 7 7 7 7 7 7 7 6 6 7 6 7 7 7 7 7 10 29 31 21 20 20 21
34 33 26 13 8 15 9 7 8 8 8 8 8 8 8 7 7 8 10 11 10 9 8 8 8 9 10 10 10 8 8 8 8 9 10 9 8 8 8 18 29 22 20
38 36 30 14 8 8 8 8 8 9 8 8 8 8 7 8 10 14 16 16 16 18 18 18 17 16 16 16 16 17 16 15 15 15 15 17 16 11 10 9 9 16 27
41 39 32 17 7 8 8 9 9 9 8 8 8 7 8 9 16 16 16 18 17 16 14 12 11 10 9 8 8 7 7 7 8 10 12 14 17 19 18 16 14 10 10
44 40 34 18 7 8 9 9 9 8 8 8 8 8 9 13 15 14 17 15 14 13 12 10 9 8 8 7 6 6 5 4 4 4 4 5 6 8 11 15 18 18 16
48 42 33 14 8 9 10 9 9 8 8 8 9 8 10 12 13 10 13 13 13 12 10 8 6 6 5 5 5 5 6 6 6 5 5 4 4 4 4 4 4 5 9
54 49 35 14 9 10 10 9 8 8 8 9 9 10 11 15 7 7 10 11 10 8 6 6 5 5 5 5 4 4 4 5 5 6 6 6 6 6 6 5 4 4 5
56 49 36 11 10 11 10 9 8 8 9 10 9 11 21 13 5 5 6 6 5 5 5 5 5 5 5 5 5 6 6 6 6 6 6 7 8 9 9 8 10 13 20
58 54 30 27 11 11 10 9 9 10 10 10 12 17 21 10 8 8 7 6 6 6 6 6 5 6 6 6 6 6 7 8 8 9 9 10 10 10 12 12 11 10 11
76 59 32 18 12 11 10 9 10 10 10 14 15 21 18 10 8 7 6 6 6 6 6 5 6 7 7 7 8 9 10 11 12 12 11 12 11 11 11 12 13 12 12
90 86 49 14 12 10 10 10 10 10 12 15 19 17 11 8 8 7 7 6 6 6 5 5 6 8 10 12 13 12 10 6 5 6 7 8 8 8 8 8 8 7 7
74 86 22 15 12 10 11 10 10 11 15 17 15 10 10 8 8 7 7 6 5 4 3 3 4 9 8 6 5 5 4 5 4 4 4 6 6 6 6 6 6 5 5
82 44 19 14 11 11 11 10 10 12 14 21 16 12 10 9 8 8 6 4 3 3 3 3 4 4 4 4 4 4 4 4 4 5 5 7 8 9 8 9 9 8 7
64 31 17 13 12 12 11 10 10 12 15 22 13 13 12 10 9 8 4 3 3 3 2 2 3 4 4 5 4 4 4 6 8 11 11 13 15 14 10 9 8 7 6
37 23 16 13 12 12 11 11 11 12 14 17 10 13 12 10 9 7 3 3 3 3 2 3 4 5 5 6 6 8 10 11 8 7 10 12 14 7 7 6 6 6 6
28 20 15 13 13 12 11 11 11 11 12 12 10 13 13 10 10 5 3 3 3 3 4 5 6 6 6 6 8 8 7 8 11 12 10 8 8 8 8 7 7 7 8
23 19 14 13 13 12 12 11 11 10 11 10 10 13 12 10 10 4 3 3 4 4 6 8 9 10 10 7 7 10 12 11 11 10 9 8 8 8 10 11 10 11 12
21 17 14 14 14 13 12 12 11 11 11 8 11 12 11 11 9 4 3 4 4 7 8 8 8 9 11 10 10 9 9 10 10 11 12 13 16 18 18 18 18 19 22
20 16 14 14 14 13 13 12 12 11 10 8 12 12 11 12 7 4 4 4 6 8 8 7 8 10 10 12 11 10 11 12 12 12 13 14 14 15 16 18 18 19 20
19 16 15 15 14 14 13 13 13 11 8 9 12 12 12 12 6 4 4 4 6 8 7 7 8 8 8 10 10 10 11 11 10 10 12 12 13 13 14 16 18 18 18
19 17 16 16 14 14 15 14 12 9 8 11 12 12 13 11 5 4 4 4 6 6 6 6 6 6 6 7 8 9 11 10 11 11 10 12 13 14 13 13 15 17 21
19 18 17 16 16 16 15 13 9 8 11 12 13 13 14 9 4 4 4 4 5 6 5 4 7 10 10 9 7 7 7 8 10 13 16 18 20 18 19 21 22 21 23
20 20 18 17 17 16 13 9 8 11 13 14 14 15 12 5 4 5 5 5 5 5 4 4 6 8 7 6 6 10 16 19 19 19 20 19 19 19 24 25 28 32 35
20 18 16 16 15 11 9 8 11 13 15 16 15 16 8 4 4 5 5 6 6 5 4 5 6 6 6 6 7 11 19 23 22 22 23 25 28 32 32 40 40 44 48
Wind_Speed
4 4 5 4 4 3 4 2 2 2 3 4 5 6 7 8 9 10 10 10 10 10 11 11 11 11 11 12 12 12 12 13 13 14 15 16 16 15 14 15 14 13 13
6 5 7 7 6 4 4 3 2 2 2 2 3 5 7 8 10 11 13 13 13 13 13 13 13 14 15 15 15 16 16 17 17 16 15 16 16 18 19 18 17 17 17
8 6 8 9 9 6 5 4 3 2 1 1 3 5 8 10 13 14 15 17 16 16 16 16 16 17 17 18 19 19 19 20 21 21 22 21 20 19 19 19 21 21 20
10 9 10 11 9 8 6 5 4 3 2 3 5 7 10 13 15 17 19 20 20 19 19 19 19 20 21 22 23 24 24 24 24 25 24 24 24 24 24 23 22 22 24
11 11 12 12 10 8 7 6 5 4 4 6 7 10 13 16 19 22 24 23 21 20 19 19 21 21 22 23 23 23 24 25 26 27 27 26 26 26 26 27 27 26 25
12 12 14 14 11 10 8 7 6 6 7 8 11 13 17 19 25 27 23 19 17 16 15 15 16 17 18 19 19 19 20 22 23 23 24 25 27 27 28 28 29 29 30
15 14 15 16 13 11 9 9 8 8 9 11 13 16 19 22 28 24 18 18 17 17 18 18 19 20 20 21 22 22 21 22 22 23 24 24 24 25 26 27 28 29 30
16 18 17 17 15 13 11 11 10 10 11 12 15 18 21 27 24 18 17 16 16 17 18 19 21 21 21 22 23 24 25 26 26 25 25 26 27 27 26 26 26 26 27
22 23 21 19 17 15 13 12 12 12 13 14 17 20 24 28 19 16 15 16 17 19 20 22 23 25 26 26 28 28 29 29 30 30 31 30 29 30 30 30 30 29 29
24 24 23 20 18 17 14 13 13 13 14 16 19 23 28 24 19 18 17 18 20 23 25 27 28 29 30 31 32 34 34 35 36 36 36 36 35 36 34 34 33 32 32
26 25 24 21 22 18 15 14 14 14 15 18 20 24 27 22 19 19 20 23 25 27 29 31 33 35 36 37 38 40 41 42 42 43 43 42 41 40 38 37 38 36 35
26 24 23 24 22 18 15 15 14 14 16 19 22 27 25 21 21 21 23 26 28 31 34 36 39 41 42 44 45 46 47 48 49 49 48 44 43 42 41 39 39 39 38
27 33 24 25 22 18 16 15 14 15 17 20 25 27 23 23 23 25 27 30 33 35 38 41 45 47 48 48 49 50 49 45 42 41 41 39 39 39 37 34 34 34 34
28 26 26 25 21 19 17 15 15 16 19 22 25 25 26 26 28 30 33 35 37 39 43 46 51 51 50 47 44 38 35 34 33 32 30 27 27 26 27 28 28 28 29
30 25 26 25 22 20 17 16 17 19 20 23 25 27 29 29 31 34 36 37 39 43 45 51 52 48 43 39 37 35 33 30 27 24 24 20 22 23 24 24 25 26 27
29 27 28 25 22 20 18 18 19 20 21 25 27 30 32 33 35 38 38 39 42 44 48 50 39 39 42 38 32 28 24 20 17 18 21 21 25 25 25 25 25 24 24
29 30 28 25 22 20 20 21 22 22 24 28 29 33 36 37 38 40 39 42 43 44 41 29 29 26 26 24 20 13 14 17 21 25 26 25 25 22 21 21 21 22 23
30 29 28 26 23 22 23 23 24 25 28 30 31 36 38 39 41 39 39 41 39 33 23 24 23 22 19 16 16 19 22 25 26 25 24 22 21 22 22 23 24 25 25
30 29 29 26 24 25 25 25 26 28 30 33 34 38 40 40 41 37 39 38 30 25 25 22 23 24 25 23 24 25 24 21 21 21 22 24 24 24 26 27 28 29 30
30 30 28 27 26 27 27 27 28 31 33 34 36 40 42 42 40 38 38 35 30 26 23 23 24 24 24 24 23 20 18 21 22 22 24 26 26 28 29 31 32 31 32
30 30 29 28 28 28 28 29 32 33 35 36 39 42 42 43 40 38 37 34 30 26 26 26 26 27 27 23 22 23 23 25 25 27 29 30 32 34 35 36 37 39 39
31 31 29 28 30 30 31 33 34 35 36 38 41 43 43 43 40 38 37 34 31 29 31 30 30 30 30 29 29 29 30 29 31 33 35 36 37 37 38 39 40 41 42
31 31 29 30 31 33 34 35 36 37 38 41 43 45 44 43 40 39 39 37 34 33 33 34 34 36 36 35 35 35 35 36 37 37 39 40 40 41 41 43 43 44 45
32 30 31 33 34 35 36 37 38 39 41 44 46 46 45 43 41 43 42 40 37 37 38 38 36 36 37 40 40 40 41 41 41 42 42 42 44 45 46 46 47 49 50
32 32 33 35 35 36 38 39 40 42 45 48 48 46 44 43 44 45 44 42 39 39 40 41 39 40 42 43 42 42 42 42 43 45 46 48 48 49 49 51 53 53 55
33 34 35 36 36 38 40 41 43 47 50 50 48 46 45 45 48 48 46 42 40 40 41 43 43 43 44 44 45 46 47 48 48 48 49 50 51 53 54 56 58 59 59
Wind_Direction
278 297 272 251 277 267 248 209 188 146 99 82 65 52 33 20 8 359 351 345 336 330 328 326 326 323 321 319 315 315 316 313 311 307 300 290 284 284 282 279 280 281 282
283 290 267 258 269 272 255 232 211 172 144 96 54 25 9 358 349 343 337 332 326 320 314 309 309 310 310 309 307 306 305 305 305 303 304 298 294 285 279 276 276 273 274
285 277 270 266 262 270 246 239 235 216 232 345 2 352 341 337 336 334 330 325 319 315 311 307 304 301 298 297 297 296 294 294 295 296 297 295 293 290 287 282 275 272 270
277 270 269 263 258 255 253 253 245 255 287 312 326 328 324 328 331 329 325 319 313 307 305 304 302 302 299 298 297 294 293 292 290 289 289 288 288 286 283 282 280 275 269
268 267 265 261 255 252 248 247 254 268 289 304 313 316 323 332 332 326 322 319 314 310 305 306 307 307 308 306 307 305 302 298 297 294 290 287 282 279 280 281 279 278 276
263 261 262 259 249 247 245 247 257 273 290 299 305 321 330 329 331 326 320 320 326 329 329 325 323 322 320 317 316 313 310 307 303 298 295 292 288 283 278 274 273 274 275
262 257 256 255 245 243 241 244 253 269 283 294 312 324 328 329 327 322 323 321 326 331 329 327 325 323 321 318 315 311 307 303 300 299 298 295 291 288 286 283 279 273 269
263 262 252 248 241 237 236 243 256 271 285 299 314 323 325 326 323 323 321 319 318 318 319 319 316 313 312 310 307 305 302 301 299 296 291 287 287 286 285 284 284 283 279
257 262 249 241 236 233 234 244 259 274 290 308 319 324 328 327 322 321 312 311 315 314 312 311 309 308 307 305 302 298 295 293 292 290 289 287 286 285 283 280 279 279 279
247 246 241 234 234 230 233 246 262 278 296 312 319 326 329 326 322 318 315 315 315 313 311 307 304 302 300 297 296 294 291 289 287 286 284 284 286 284 284 283 280 277 276
242 239 234 231 231 230 237 250 265 282 301 313 321 323 326 325 320 318 319 318 314 311 307 303 301 298 296 296 292 289 288 288 287 286 286 287 285 282 283 282 281 280 279
238 237 234 229 228 230 240 253 267 287 302 313 317 319 321 320 315 317 316 312 310 308 306 303 299 296 294 291 289 289 291 291 291 291 290 290 287 285 282 280 279 279 279
239 238 231 226 225 231 241 254 271 288 303 312 315 320 317 315 315 314 312 309 306 306 305 301 297 294 292 293 295 294 294 294 290 288 286 287 285 283 282 281 279 278 280
240 224 229 224 225 234 242 256 272 288 302 310 320 321 316 314 315 313 311 308 308 307 305 303 295 295 299 299 297 294 293 294 295 292 289 288 288 286 287 288 286 284 283
238 231 224 222 227 235 245 258 273 286 297 311 316 320 316 313 313 312 311 310 311 308 306 299 299 301 299 299 297 296 294 295 295 295 294 294 292 290 289 288 288 287 286
236 230 222 224 230 237 248 261 273 284 297 306 311 316 314 312 314 314 312 312 310 311 305 304 308 305 302 299 294 294 297 298 298 298 298 296 294 291 290 288 288 287 286
236 223 222 226 233 241 252 263 274 285 293 300 307 313 313 314 316 316 314 313 313 312 308 315 321 325 323 311 300 297 300 298 296 297 296 292 289 290 287 285 288 291 288
228 223 225 230 236 246 257 267 277 283 290 299 305 310 314 315 316 314 312 313 313 311 315 321 325 328 329 321 306 301 299 299 296 293 291 286 285 283 284 284 284 283 286
222 224 228 234 241 251 261 271 278 284 291 298 304 310 313 313 316 309 310 308 310 312 314 314 319 316 311 306 301 299 298 297 296 293 290 288 289 290 291 290 288 288 288
223 227 233 239 247 256 266 275 281 286 292 298 305 308 311 313 312 306 307 303 300 305 304 304 310 314 315 309 302 298 297 295 293 288 287 287 286 286 287 287 287 287 286
225 231 236 244 253 262 271 277 282 286 293 298 302 306 309 311 307 303 304 299 296 295 298 300 302 304 306 302 302 295 290 293 290 286 288 288 289 289 290 290 290 288 287
230 236 243 251 259 268 273 277 282 289 293 296 301 304 307 307 301 299 301 293 287 287 288 292 295 296 296 295 295 294 293 292 292 293 292 292 293 292 292 290 289 288 288
236 243 250 257 264 269 273 279 284 289 292 296 299 302 305 302 297 298 298 292 282 282 283 285 288 289 290 290 291 292 292 292 293 293 291 292 292 292 291 290 290 290 290
244 250 255 260 265 270 276 281 285 288 291 294 298 301 302 296 295 297 295 290 281 278 280 283 286 288 290 290 289 290 290 291 293 293 294 292 293 294 293 291 289 289 288
250 255 259 264 269 275 279 282 284 287 290 293 297 301 297 293 295 297 295 287 280 280 280 280 282 285 288 289 291 290 290 291 292 292 292 294 293 292 291 292 292 292 291
256 260 264 269 274 277 279 281 285 287 290 294 297 297 293 292 294 295 292 284 282 283 281 281 283 284 287 289 289 290 290 289 290 291 291 292 292 292 293 292 291 291 291